Jordan Valley, OR

10:51 PM MDT on September 29, 2016 (GMT -0600)
Rome State

Weather History for KREO - March, 2013

Change the Weather History Date:

Monday, March 4, 2013

  Actual Average Record
Temperature  
Mean Temperature 31 °F 38 °F  
Max Temperature 49 °F 51 °F 70 °F (1987)
Min Temperature 13 °F 24 °F 11 °F (1976)
Degree Days  
Heating Degree Days 34 28  
Month to date heating degree days 105 112  
Since 1 July heating degree days 4754 4846  
Cooling Degree Days 0 0  
Month to date cooling degree days 0 0  
Year to date cooling degree days 0 0  
Moisture  
Dew Point 13 °F    
Average Humidity 52    
Maximum Humidity 80    
Minimum Humidity 23    
Precipitation  
Precipitation 0.00 in 0.03 in 0.22 in (1957)
Month to date precipitation 0.02 0.10  
Year to date precipitation 0.80 1.51  
Sea Level Pressure  
Sea Level Pressure 30.17 in    
Wind  
Wind Speed 5 mph (ESE)    
Max Wind Speed 13 mph    
Max Gust Speed 16 mph    
T = Trace of Precipitation, MM = Missing Value Source: NWS Daily Summary

Daily Weather History Graph

Daily Weather History Graph

Search for Another Location

Airport or City:

Trip Planner

Search our weather history database for the weather conditions in past years. The results will help you decide how hot, cold, wet, or windy it might be!

Date:

Astronomy

Mar. 04, 2013 Rise Set
Actual Time 6:21 AM PST 5:45 PM PST
Civil Twilight 5:53 AM PST 6:13 PM PST
Nautical Twilight 5:20 AM PST 6:46 PM PST
Astronomical Twilight 4:48 AM PST 7:18 PM PST
Moon 12:41 AM PST (3/4) 10:25 AM PST (3/4)
Length of Visible Light 12h 20m
Length of Day
11h 23m
Waning Gibbous, 51% of the Moon is Illuminated
Mar 4
Waning Gibbous
Mar 4
Last Quarter
Mar 11
New
Mar 19
First Quarter
Mar 27
Full

Hourly Weather History & Observations

Time (PST) Temp. Windchill Dew Point Humidity Pressure Visibility Wind Dir Wind Speed Gust Speed Precip Events Conditions
12:52 AM 17.1 °F 11.7 °F 10.0 °F 74% 30.19 in - SSE 3.5 mph - N/A   Unknown
1:52 AM 16.0 °F 7.4 °F 10.0 °F 77% 30.19 in - SSE 5.8 mph - N/A   Unknown
2:52 AM 15.1 °F 6.4 °F 9.0 °F 77% 30.21 in - SSE 5.8 mph - N/A   Unknown
3:52 AM 16.0 °F 8.8 °F 9.0 °F 74% 30.22 in - SE 4.6 mph - N/A   Unknown
4:52 AM 14.0 °F 6.5 °F 8.1 °F 77% 30.23 in - SE 4.6 mph - N/A   Unknown
6:52 AM 16.0 °F - 10.0 °F 77% 30.27 in - Calm Calm - N/A   Unknown
7:52 AM 26.1 °F - 15.1 °F 63% 30.26 in - Calm Calm - N/A   Unknown
8:52 AM 32.0 °F 27.5 °F 14.0 °F 48% 30.26 in - NNE 4.6 mph - N/A   Unknown
9:52 AM 36.0 °F 29.6 °F 12.0 °F 37% 30.26 in - NE 8.1 mph - N/A   Unknown
10:52 AM 39.0 °F 32.3 °F 10.9 °F 32% 30.23 in - East 10.4 mph - N/A   Unknown
11:52 AM 42.1 °F 38.4 °F 10.0 °F 27% 30.22 in - Variable 5.8 mph - N/A   Unknown
12:52 PM 44.1 °F - 10.0 °F 25% 30.19 in - Calm Calm - N/A   Unknown
1:52 PM 46.0 °F - 10.0 °F 23% 30.16 in - Calm Calm - N/A   Unknown
2:52 PM 48.0 °F - 15.1 °F 27% 30.14 in - SSW 8.1 mph - N/A   Unknown
3:52 PM 48.0 °F - 15.1 °F 27% 30.12 in - Variable 3.5 mph - N/A   Unknown
4:52 PM 48.0 °F - 16.0 °F 28% 30.12 in - South 3.5 mph - N/A   Unknown
5:52 PM 42.1 °F 39.2 °F 15.1 °F 34% 30.14 in - SSE 4.6 mph - N/A   Unknown
6:52 PM 37.0 °F 30.4 °F 15.1 °F 41% 30.13 in - SE 9.2 mph - N/A   Unknown
7:52 PM 36.0 °F 27.5 °F 17.1 °F 46% 30.10 in - SE 12.7 mph - N/A   Unknown
8:52 PM 33.1 °F 26.1 °F 18.0 °F 54% 30.10 in - SSE 8.1 mph - N/A   Unknown
9:52 PM 28.9 °F - 16.0 °F 58% 30.10 in - Calm Calm - N/A   Unknown
10:52 PM 27.0 °F 21.6 °F 15.1 °F 61% 30.08 in - NE 4.6 mph - N/A   Unknown
11:52 PM 25.0 °F 18.1 °F 17.1 °F 72% 30.07 in - NNE 5.8 mph - N/A   Unknown